Grand Marais, MN

3:00 PM CST on November 11, 2019 (GMT -0600)
Grand Marais

Weather History for KGNA - September, 2019

Change the Weather History Date:

Saturday, September 7, 2019

  Actual Average (KCKC) Record (KCKC)
Temperature  
Mean Temperature 56 °F -  
Max Temperature 63 °F 65 °F 84 °F (2002)
Min Temperature 50 °F 46 °F 37 °F (2008)
Degree Days  
Heating Degree Days 10    
Growing Degree Days 6 (Base 50)    
Moisture  
Dew Point 47 °F    
Average Humidity 74    
Maximum Humidity 93    
Minimum Humidity 58    
Precipitation  
Precipitation 0.00 in - - ()
Sea Level Pressure  
Sea Level Pressure 30.08 in    
Wind  
Wind Speed 4 mph (NW)    
Max Wind Speed 9 mph    
Max Gust Speed -    
Averages and records for this station are not official NWS values.
T = Trace of Precipitation, MM = Missing Value Source: NWS Daily Summary

Daily Weather History Graph

Daily Weather History Graph

Search for Another Location

Airport or City:

Astronomy

Sep. 07, 2019 Rise Set
Actual Time 6:27 AM CDT 7:30 PM CDT
Civil Twilight 5:55 AM CDT 8:01 PM CDT
Nautical Twilight 5:18 AM CDT 8:39 PM CDT
Astronomical Twilight 4:37 AM CDT 9:19 PM CDT
Moon 4:07 PM CDT (9/7) No Moon Set
Length of Visible Light 14h 05m
Length of Day
13h 02m
Waxing Gibbous, 66% of the Moon is Illuminated
Sep 7
Waxing Gibbous
Sep 13
Full
Sep 21
Last Quarter
Sep 28
New
Oct 5
First Quarter

Hourly Weather History & Observations

Time (CDT) Temp. Dew Point Humidity Pressure Visibility Wind Dir Wind Speed Gust Speed Precip Events Conditions
12:56 AM 55.0 °F 48.9 °F 80% 29.97 in - SW 4.6 mph - N/A   Unknown
1:56 AM 53.1 °F 48.0 °F 83% 29.98 in - WSW 5.8 mph - N/A   Unknown
2:56 AM 57.0 °F 48.9 °F 74% 29.98 in - NNW 9.2 mph - N/A   Unknown
4:56 AM 54.0 °F 48.0 °F 80% 30.01 in - Variable 4.6 mph - N/A   Unknown
5:56 AM 52.0 °F 46.9 °F 83% 30.03 in - Variable 3.5 mph - N/A   Unknown
6:56 AM 52.0 °F 46.9 °F 83% 30.05 in - Variable 6.9 mph - N/A   Unknown
7:56 AM 55.9 °F 48.0 °F 75% 30.04 in - Variable 6.9 mph - N/A   Unknown
8:56 AM 57.9 °F 45.0 °F 62% 30.03 in - North - - N/A   Unknown
9:56 AM 59.0 °F 44.1 °F 58% 30.05 in - North - - N/A   Unknown
10:56 AM 59.0 °F 45.0 °F 60% 30.09 in - Calm Calm - N/A   Unknown
11:56 AM 60.1 °F 46.0 °F 60% 30.09 in - Calm Calm - N/A   Unknown
12:56 PM 61.0 °F 46.9 °F 60% 30.09 in - Variable 4.6 mph - N/A   Unknown
1:56 PM 61.0 °F 46.0 °F 58% 30.09 in - Calm Calm - N/A   Unknown
3:56 PM 61.0 °F 48.0 °F 62% 30.10 in - Variable 5.8 mph - N/A   Unknown
4:56 PM 60.1 °F 48.0 °F 64% 30.11 in - NNW 3.5 mph - N/A   Unknown
5:56 PM 55.9 °F 46.9 °F 72% 30.12 in - Calm Calm - N/A   Unknown
6:56 PM 52.0 °F 46.0 °F 80% 30.13 in - Calm Calm - N/A   Unknown
7:56 PM 55.0 °F 48.0 °F 77% 30.12 in - North 3.5 mph - N/A   Unknown
8:56 PM 50.0 °F 45.0 °F 83% 30.16 in - NE 3.5 mph - N/A   Unknown
9:56 PM 53.1 °F 51.1 °F 93% 30.17 in - Calm Calm - N/A   Unknown
10:56 PM 53.1 °F 48.9 °F 86% 30.19 in - Variable 3.5 mph - N/A   Unknown
11:56 PM 53.1 °F 48.9 °F 86% 30.19 in - Calm Calm - N/A   Unknown